Stations météo

réclame
Mon MeteoGroup
Filton, Grande-Bretagne (3628): Température de l'air & dewpoint: 13.07.2018 18:00:00 - 19.07.2018 18:00:00 (BST)Filton, Grande-Bretagne (3628): Température de l'air -20cm & Température de l'air -100cm: 13.07.2018 18:00:00 - 19.07.2018 18:00:00 (BST)Filton, Grande-Bretagne (3628): Vitesse du vent: 13.07.2018 18:00:00 - 19.07.2018 18:00:00 (BST)Filton, Grande-Bretagne (3628): Direction du vent: 13.07.2018 18:00:00 - 19.07.2018 18:00:00 (BST)Filton, Grande-Bretagne (3628): reduced air pressure: 13.07.2018 18:00:00 - 19.07.2018 18:00:00 (BST)Filton, Grande-Bretagne (3628): visibility: 13.07.2018 18:00:00 - 19.07.2018 18:00:00 (BST)Filton, Grande-Bretagne (3628): Ensoleillement: 13.07.2018 18:00:00 - 19.07.2018 18:00:00 (BST)Filton, Grande-Bretagne (3628): Quantités de précipitations: 13.07.2018 18:00:00 - 19.07.2018 18:00:00 (BST)
Date & Time tt [°C] td [°C] tt -20cm [°C] tt -100cm [°C] ff [km/h] ff [knt] dd ppp [hPa] vv [km] sd [min] rr [mm]
19.07.2018 18:00:00 23,7 10,3 - - 15 8 W 1017,1 35 30 0,0
19.07.2018 17:00:00 25,1 11,1 - - 13 7 W 1017,2 35 60 0,0
19.07.2018 16:00:00 25,0 10,7 - - 11 6 W 1017,8 30 60 0,0
19.07.2018 15:00:00 25,0 11,2 - - 13 7 WNW 1018,1 30 60 0,0
19.07.2018 14:00:00 24,4 10,4 - - 8 4 SE 1018,4 30 54 0,0
19.07.2018 13:00:00 24,0 10,9 - - 8 4 W 1019,0 35 60 0,0
19.07.2018 12:00:00 23,7 11,2 - - 8 4 WSW 1019,1 35 60 0,0
19.07.2018 11:00:00 21,1 11,2 - - 5 3 N 1019,5 30 60 0,0
19.07.2018 10:00:00 19,1 11,5 18,4 16,9 5 3 N 1019,7 30 48 0,0
19.07.2018 09:00:00 17,9 11,4 - - 8 4 NNE 1019,7 30 6 0,0
19.07.2018 08:00:00 17,1 11,1 - - 5 3 NNE 1019,6 30 42 0,0
19.07.2018 07:00:00 15,3 12,7 - - 4 2 NW 1019,8 28 0 0,0
19.07.2018 06:00:00 13,2 11,1 - - 0 0 N 1019,8 30 0 0,0
19.07.2018 05:00:00 12,8 10,9 - - 2 1 W 1019,6 30 0 0,0
19.07.2018 04:00:00 14,2 11,9 - - 2 1 WSW 1019,4 35 0 0,0
19.07.2018 03:00:00 13,8 11,0 - - 2 1 WSW 1019,5 40 0 0,0
19.07.2018 02:00:00 14,9 11,4 - - 4 2 W 1019,7 30 0 0,0
19.07.2018 01:00:00 15,5 11,6 - - 5 3 W 1019,5 35 - 0,0
19.07.2018 00:00:00 15,3 10,9 - - 5 3 WSW 1019,3 40 0 0,0
18.07.2018 23:00:00 16,5 11,7 - - 5 3 WSW 1019,3 40 0 0,0
18.07.2018 22:00:00 17,5 12,0 - - 8 4 WSW 1019,1 40 0 0,0
18.07.2018 21:00:00 19,2 11,3 - - 16 9 WSW 1018,9 35 0 0,0
18.07.2018 20:00:00 20,7 12,4 - - 18 10 SW 1018,6 30 6 0,0
18.07.2018 19:00:00 21,3 11,3 - - 16 9 WSW 1018,3 30 0 0,0
18.07.2018 18:00:00 21,8 11,8 - - 16 9 W 1018,3 35 0 0,0
18.07.2018 17:00:00 21,3 12,1 - - 16 9 W 1018,4 30 0 0,0
18.07.2018 16:00:00 22,1 12,0 - - 21 11 W 1018,2 35 6 0,0
18.07.2018 15:00:00 21,2 11,5 - - 16 9 W 1018,1 35 0 0,0
18.07.2018 14:00:00 22,3 12,6 - - 9 5 W 1018,0 35 6 0,0
18.07.2018 13:00:00 23,1 11,7 - - 11 6 WSW 1018,0 35 24 0,0
18.07.2018 12:00:00 20,1 12,6 - - 11 6 W 1018,3 30 6 0,0
18.07.2018 11:00:00 20,7 11,7 - - 15 8 SW 1018,3 35 42 0,0
18.07.2018 10:00:00 20,3 11,8 18,9 16,9 9 5 SW 1018,4 29 48 0,0
18.07.2018 09:00:00 19,3 12,8 - - 11 6 SSW 1018,4 40 6 0,0
18.07.2018 08:00:00 17,7 12,4 - - 9 5 S 1018,0 40 0 0,0
18.07.2018 07:00:00 16,4 12,6 - - 9 5 S 1017,8 45 0 0,0
18.07.2018 06:00:00 15,8 12,3 - - 5 3 S 1017,5 45 0 0,0
18.07.2018 05:00:00 15,8 12,1 - - 9 5 S 1017,4 45 0 0,0
18.07.2018 04:00:00 15,6 12,2 - - 8 4 SSE 1017,4 35 0 0,0
18.07.2018 03:00:00 14,9 12,3 - - 8 4 S 1017,6 55 0 0,0
18.07.2018 02:00:00 15,0 12,1 - - 8 4 WSW 1017,7 60 0 0,0
18.07.2018 01:00:00 14,4 11,2 - - 4 2 SW 1017,7 50 - 0,0
18.07.2018 00:00:00 14,7 10,3 - - 8 4 SSW 1017,8 60 0 0,0
17.07.2018 23:00:00 16,2 10,8 - - 5 3 SSW 1017,7 60 0 0,0
17.07.2018 22:00:00 16,7 10,6 - - 8 4 WSW 1017,4 45 0 0,0
17.07.2018 21:00:00 17,9 9,9 - - 16 9 WSW 1017,0 75 12 0,0
17.07.2018 20:00:00 19,0 10,6 - - 18 10 WSW 1016,9 60 48 0,0
17.07.2018 19:00:00 20,9 10,8 - - 22 12 WSW 1016,4 65 12 0,0
17.07.2018 18:00:00 20,9 10,6 - - 24 13 WSW 1016,4 55 18 0,0
17.07.2018 17:00:00 20,6 10,4 - - 28 15 WSW 1016,4 55 0 0,0
17.07.2018 16:00:00 21,1 8,8 - - 28 15 WSW 1016,4 55 30 0,0
17.07.2018 15:00:00 23,1 9,7 - - 24 13 WSW 1016,4 21 24 0,0
17.07.2018 14:00:00 22,2 10,7 - - 24 13 W 1016,3 35 12 0,0
17.07.2018 13:00:00 20,6 11,5 - - 21 11 W 1016,4 40 30 0,0
17.07.2018 12:00:00 21,4 11,5 - - 18 10 WSW 1016,2 45 36 0,0
17.07.2018 11:00:00 20,6 10,9 - - 15 8 WSW 1016,2 55 18 0,0
17.07.2018 10:00:00 17,5 12,8 18,9 16,9 15 8 W 1016,3 35 6 0,0
17.07.2018 09:00:00 16,7 12,4 - - 16 9 SW 1016,2 30 30 0,0
17.07.2018 08:00:00 17,1 13,7 - - 11 6 WSW 1016,0 40 54 0,0
17.07.2018 07:00:00 15,0 13,2 - - 9 5 SSW 1015,7 35 36 0,0
17.07.2018 06:00:00 12,4 11,0 - - 5 3 SW 1015,3 27 0 0,0
17.07.2018 05:00:00 14,1 12,3 - - 9 5 W 1015,2 40 0 0,0
17.07.2018 04:00:00 14,1 11,8 - - 8 4 W 1015,2 45 0 0,0
17.07.2018 03:00:00 13,9 10,8 - - 9 5 W 1015,1 55 0 0,0
17.07.2018 02:00:00 15,5 11,2 - - 11 6 W 1015,2 55 0 0,0
17.07.2018 01:00:00 15,4 11,4 - - 11 6 W 1015,3 55 - 0,0
17.07.2018 00:00:00 15,8 10,8 - - 11 6 W 1015,5 45 0 0,0
16.07.2018 23:00:00 16,4 10,9 - - 16 9 W 1015,3 40 0 0,0
16.07.2018 22:00:00 16,1 12,1 - - 21 11 WSW 1014,9 40 0 0,0
16.07.2018 21:00:00 16,9 11,1 - - 26 14 WSW 1014,4 45 42 0,0
16.07.2018 20:00:00 18,4 10,0 - - 34 18 WSW 1014,0 50 60 0,0
16.07.2018 19:00:00 20,4 11,4 - - 31 17 W 1013,6 45 6 0,0
16.07.2018 18:00:00 20,0 14,1 - - 28 15 W 1013,4 55 0 0,0
16.07.2018 17:00:00 19,0 16,4 - - 22 12 W 1013,5 21 0 0,0
16.07.2018 16:00:00 21,5 14,7 - - 29 16 W 1013,1 27 18 0,0
16.07.2018 15:00:00 24,6 11,9 - - 5 3 N 1012,7 35 36 0,0
16.07.2018 14:00:00 24,2 12,9 - - 13 7 W 1013,3 35 42 0,0
16.07.2018 13:00:00 24,6 12,6 - - 13 7 WSW 1013,6 35 18 0,0
16.07.2018 12:00:00 22,9 11,6 - - 13 7 SSW 1014,0 40 6 0,0
16.07.2018 11:00:00 22,5 14,5 - - 9 5 SW 1014,1 30 0 0,0
16.07.2018 10:00:00 21,5 14,6 19,9 16,9 4 2 SW 1014,1 30 6 0,0
16.07.2018 09:00:00 20,2 15,5 - - 5 3 W 1014,2 24 36 0,0
16.07.2018 08:00:00 19,4 16,4 - - 5 3 WSW 1014,3 21 24 0,0
16.07.2018 07:00:00 17,7 15,9 - - 4 2 SSW 1014,1 18 0 0,0
16.07.2018 06:00:00 16,3 15,0 - - 5 3 SSW 1014,4 9 0 0,0
16.07.2018 05:00:00 16,8 14,9 - - 9 5 SW 1014,6 11 0 0,0
16.07.2018 04:00:00 16,3 14,4 - - 5 3 WSW 1014,9 18 0 0,0
16.07.2018 03:00:00 15,9 13,5 - - 9 5 WSW 1015,0 29 0 0,0
16.07.2018 02:00:00 16,8 13,1 - - 8 4 WSW 1015,1 35 0 0,0
16.07.2018 01:00:00 17,1 12,6 - - 8 4 WSW 1015,4 45 - 0,0
16.07.2018 00:00:00 17,6 11,2 - - 8 4 WSW 1015,4 50 0 0,0
15.07.2018 23:00:00 17,8 11,3 - - 9 5 SW 1015,5 45 0 0,0
15.07.2018 22:00:00 20,9 11,4 - - 15 8 W 1015,2 50 0 0,0
15.07.2018 21:00:00 22,0 11,7 - - 16 9 W 1014,8 40 30 0,0
15.07.2018 20:00:00 23,4 11,4 - - 18 10 W 1014,6 40 60 0,0
15.07.2018 19:00:00 24,9 11,6 - - 18 10 W 1014,4 40 60 0,0
15.07.2018 18:00:00 25,7 11,6 - - 18 10 W 1014,8 45 60 0,0
15.07.2018 17:00:00 25,0 12,1 - - 18 10 W 1015,2 45 60 0,0
15.07.2018 16:00:00 24,8 10,8 - - 18 10 W 1015,6 45 60 0,0
15.07.2018 15:00:00 25,4 10,6 - - 21 11 W 1015,9 55 60 0,0
15.07.2018 14:00:00 25,0 11,1 - - 16 9 WSW 1016,3 50 60 0,0
15.07.2018 13:00:00 23,5 11,3 - - 13 7 W 1016,7 50 60 0,0
15.07.2018 12:00:00 23,1 12,1 - - 13 7 W 1017,2 35 60 0,0
15.07.2018 11:00:00 22,1 13,3 - - 11 6 W 1017,3 25 60 0,0
15.07.2018 10:00:00 21,2 13,2 18,9 16,7 9 5 W 1017,5 25 60 0,0
15.07.2018 09:00:00 19,3 13,3 - - 5 3 NNW 1017,8 29 60 0,0
15.07.2018 08:00:00 17,9 13,8 - - 4 2 WNW 1017,9 29 60 0,0
15.07.2018 07:00:00 15,8 14,1 - - 5 3 W 1017,9 19 60 0,0
15.07.2018 06:00:00 13,4 12,6 - - 5 3 W 1017,7 16 6 0,0
15.07.2018 05:00:00 14,0 13,3 - - 5 3 W 1017,9 12 0 0,0
15.07.2018 04:00:00 14,2 13,3 - - 4 2 W 1018,1 12 0 0,0
15.07.2018 03:00:00 14,0 12,4 - - 5 3 WSW 1018,2 16 0 0,0
15.07.2018 02:00:00 14,7 13,2 - - 5 3 W 1018,3 21 0 0,0
15.07.2018 01:00:00 15,3 14,0 - - 5 3 WSW 1018,3 27 - 0,0
15.07.2018 00:00:00 14,7 12,1 - - 9 5 SW 1018,6 35 0 0,0
14.07.2018 23:00:00 16,2 12,3 - - 11 6 WSW 1018,6 40 0 0,0
14.07.2018 22:00:00 17,9 12,5 - - 15 8 WSW 1018,7 27 0 0,0
14.07.2018 21:00:00 20,0 12,3 - - 21 11 WSW 1018,4 40 42 0,0
14.07.2018 20:00:00 22,2 12,6 - - 21 11 W 1018,3 40 60 0,0
14.07.2018 19:00:00 23,3 11,4 - - 21 11 W 1018,3 40 60 0,0
14.07.2018 18:00:00 24,9 9,3 - - 18 10 WSW 1018,5 50 60 0,0
14.07.2018 17:00:00 25,0 10,5 - - 22 12 WSW 1018,8 40 60 0,0
14.07.2018 16:00:00 24,8 9,9 - - 22 12 W 1019,2 50 60 0,0
14.07.2018 15:00:00 24,6 11,6 - - 18 10 WSW 1019,5 35 54 0,0
14.07.2018 14:00:00 23,9 13,4 - - 16 9 W 1019,9 30 54 0,0
14.07.2018 13:00:00 23,3 14,2 - - 15 8 W 1020,2 26 42 0,0
14.07.2018 12:00:00 22,6 14,8 - - 11 6 W 1020,6 23 30 0,0
14.07.2018 11:00:00 20,7 14,4 - - 8 4 SW 1020,9 21 36 0,0
14.07.2018 10:00:00 20,2 15,3 19,5 16,7 8 4 S 1021,0 17 30 0,0
14.07.2018 09:00:00 18,3 15,4 - - 5 3 WSW 1021,1 15 60 0,0
14.07.2018 08:00:00 17,3 15,6 - - 4 2 SSW 1021,1 14 54 0,0
14.07.2018 07:00:00 15,8 15,3 - - 5 3 SW 1021,1 16 0 0,0
14.07.2018 06:00:00 14,3 14,0 - - 2 1 SW 1021,1 18 0 0,0
14.07.2018 05:00:00 13,7 13,4 - - 5 3 SE 1021,1 11 0 0,0
14.07.2018 04:00:00 14,1 13,8 - - 2 1 SSE 1021,3 12 0 0,0
14.07.2018 03:00:00 14,4 13,9 - - 2 1 WSW 1021,4 17 0 0,0
14.07.2018 02:00:00 15,0 14,3 - - 4 2 WSW 1021,5 16 0 0,0
14.07.2018 01:00:00 15,0 13,8 - - 8 4 WSW 1021,7 17 - 0,0
14.07.2018 00:00:00 15,6 14,1 - - 8 4 WSW 1021,6 17 0 0,0
13.07.2018 23:00:00 16,1 14,8 - - 5 3 W 1021,6 14 0 0,0
13.07.2018 22:00:00 16,8 15,1 - - 13 7 WSW 1021,4 16 0 0,0
13.07.2018 21:00:00 18,8 16,5 - - 11 6 SW 1020,9 16 6 0,0
13.07.2018 20:00:00 19,6 16,9 - - 11 6 S 1021,0 21 54 0,0
13.07.2018 19:00:00 19,2 17,7 - - 15 8 S 1020,9 14 6 4,8
13.07.2018 18:00:00 19,2 17,4 - - 15 8 SE 1020,9 15 0 1,0

tt = Température de l'air
td = dewpoint
tt -20cm = Température de l'air -20cm
tt -100cm = Température de l'air -100cm
ff = Vitesse du vent
dd = Direction du vent
ppp = reduced air pressure
vv = visibility
sd = Ensoleillement
rr = Quantités de précipitations

stations d'obs. à proximité